| time (UTC) | temp F | wind direction | speed MPH | gust MPH | rain 1hr in | rain 24hr in | rain mn in | humidity % | barometer mb |
| 20260505163052 | 81 | 133 | 2.0 | 20.0 | 0.00 | 0.00 | 0.00 | 31 | 1009.9 |
| 20260505161556 | 79 | 237 | 10.0 | 22.0 | 0.00 | 0.00 | 0.00 | 33 | 1009.9 |
| 20260505153049 | 78 | 246 | 10.0 | 25.0 | 0.00 | 0.00 | 0.00 | 36 | 1010.2 |
| 20260505151546 | 78 | 222 | 8.0 | 23.0 | 0.00 | 0.00 | 0.00 | 36 | 1010.3 |
| 20260505130141 | 69 | 193 | 4.0 | 7.0 | 0.00 | 0.00 | 0.00 | 51 | 1010.7 |
| 20260505124557 | 64 | 9 | 1.0 | 5.0 | 0.00 | 0.00 | 0.00 | 65 | 1010.7 |
| 20260505123049 | 62 | 0 | 2.0 | 5.0 | 0.00 | 0.00 | 0.00 | 69 | 1011.1 |
| 20260505121549 | 59 | 0 | 1.0 | 3.0 | 0.00 | 0.00 | 0.00 | 73 | 1011.3 |
| 20260505120052 | 58 | 9 | 2.0 | 4.0 | 0.00 | 0.00 | 0.00 | 77 | 1011.4 |
| 20260505114548 | 55 | 13 | 0.0 | 1.0 | 0.00 | 0.00 | 0.00 | 80 | 1011.4 |
| 20260505113045 | 54 | 0 | 0.0 | 4.0 | 0.00 | 0.00 | 0.00 | 82 | 1011.3 |
| 20260505111547 | 53 | 0 | 1.0 | 3.0 | 0.00 | 0.00 | 0.00 | 83 | 1011.2 |
| 20260505101543 | 51 | 0 | 0.0 | 2.0 | 0.00 | 0.00 | 0.00 | 84 | 1010.6 |
| 20260505100049 | 51 | 19 | 0.0 | 2.0 | 0.00 | 0.00 | 0.00 | 84 | 1010.3 |
| 20260505094550 | 51 | 360 | 0.0 | 2.0 | 0.00 | 0.00 | 0.00 | 84 | 1010.3 |
| 20260505093053 | 51 | 0 | 0.0 | 1.0 | 0.00 | 0.00 | 0.00 | 84 | 1010.4 |
| 20260505091602 | 50 | 0 | 0.0 | 3.0 | 0.00 | 0.00 | 0.00 | 85 | 1010.0 |
| 20260505090052 | 50 | 0 | 0.0 | 4.0 | 0.00 | 0.00 | 0.00 | 85 | 1009.9 |
| 20260505084549 | 50 | 360 | 1.0 | 4.0 | 0.00 | 0.00 | 0.00 | 84 | 1009.8 |
| 20260505083042 | 50 | 0 | 0.0 | 0.0 | 0.00 | 0.00 | 0.00 | 83 | 1009.8 |
| 20260505081553 | 51 | 0 | 0.0 | 2.0 | 0.00 | 0.00 | 0.00 | 82 | 1009.8 |
| 20260505080054 | 51 | 0 | 0.0 | 4.0 | 0.00 | 0.00 | 0.00 | 82 | 1009.8 |
| 20260505074548 | 51 | 0 | 0.0 | 3.0 | 0.00 | 0.00 | 0.00 | 81 | 1009.7 |
| 20260505073052 | 52 | 0 | 0.0 | 4.0 | 0.00 | 0.00 | 0.00 | 81 | 1009.6 |
| 20260505071543 | 52 | 360 | 1.0 | 3.0 | 0.00 | 0.00 | 0.00 | 79 | 1009.6 |
| 20260505070051 | 53 | 0 | 1.0 | 2.0 | 0.00 | 0.00 | 0.00 | 79 | 1009.6 |
| 20260505064539 | 53 | 0 | 1.0 | 3.0 | 0.00 | 0.00 | 0.00 | 77 | 1009.5 |
| 20260505063108 | 54 | 0 | 0.0 | 3.0 | 0.00 | 0.00 | 0.00 | 76 | 1009.6 |
| 20260505061542 | 55 | 0 | 0.0 | 3.0 | 0.00 | 0.00 | 0.00 | 75 | 1009.6 |
| 20260505060049 | 55 | 0 | 0.0 | 5.0 | 0.00 | 0.00 | 0.00 | 74 | 1009.7 |
| 20260505054551 | 56 | 233 | 0.0 | 2.0 | 0.00 | 0.00 | 0.00 | 72 | 1009.7 |
| 20260505053052 | 57 | 242 | 0.0 | 1.0 | 0.00 | 0.00 | 0.00 | 70 | 1009.7 |
| 20260505051541 | 58 | 0 | 0.0 | 1.0 | 0.00 | 0.00 | 0.00 | 69 | 1009.6 |
| 20260505041556 | 62 | 0 | 0.0 | 2.0 | 0.00 | 0.00 | 0.00 | 60 | 1009.4 |
| 20260505040054 | 63 | 184 | 0.0 | 4.0 | 0.00 | 0.00 | 0.00 | 58 | 1009.5 |
| 20260505034545 | 64 | 53 | 1.0 | 3.0 | 0.00 | 0.00 | 0.00 | 57 | 1009.4 |
| 20260505033043 | 65 | 0 | 0.0 | 5.0 | 0.00 | 0.00 | 0.00 | 54 | 1009.3 |
| 20260505031553 | 66 | 360 | 1.0 | 4.0 | 0.00 | 0.00 | 0.00 | 52 | 1009.4 |
| 20260505030041 | 66 | 0 | 1.0 | 5.0 | 0.00 | 0.00 | 0.00 | 52 | 1009.6 |
| 20260505024559 | 66 | 360 | 1.0 | 4.0 | 0.00 | 0.00 | 0.00 | 52 | 1009.6 |
| 20260505023051 | 66 | 32 | 2.0 | 5.0 | 0.00 | 0.00 | 0.00 | 52 | 1009.6 |
| 20260505021547 | 67 | 46 | 1.0 | 4.0 | 0.00 | 0.00 | 0.00 | 51 | 1009.4 |
| 20260505020045 | 67 | 32 | 2.0 | 7.0 | 0.00 | 0.00 | 0.00 | 51 | 1009.5 |
| 20260505014603 | 66 | 32 | 2.0 | 6.0 | 0.00 | 0.00 | 0.00 | 53 | 1009.3 |
| 20260505013050 | 67 | 0 | 1.0 | 4.0 | 0.00 | 0.00 | 0.00 | 52 | 1009.4 |
| 20260505011555 | 68 | 360 | 1.0 | 4.0 | 0.00 | 0.00 | 0.00 | 50 | 1009.2 |
| 20260505010049 | 69 | 142 | 2.0 | 5.0 | 0.00 | 0.00 | 0.00 | 47 | 1008.7 |
| 20260505004552 | 70 | 0 | 0.0 | 2.0 | 0.00 | 0.00 | 0.00 | 45 | 1008.4 |
| 20260505003045 | 72 | 0 | 0.0 | 4.0 | 0.00 | 0.00 | 0.00 | 42 | 1008.4 |
| 20260505001545 | 73 | 0 | 3.0 | 13.0 | 0.00 | 0.00 | 0.00 | 39 | 1008.3 |
| 20260505000105 | 73 | 225 | 4.0 | 10.0 | 0.00 | 0.00 | 0.00 | 40 | 1008.2 |
| 20260504234549 | 73 | 182 | 1.0 | 5.0 | 0.00 | 0.00 | 0.00 | 41 | 1008.0 |
| 20260504233105 | 73 | 153 | 1.0 | 6.0 | 0.00 | 0.00 | 0.00 | 39 | 1007.8 |
| 20260504231548 | 74 | 184 | 3.0 | 11.0 | 0.00 | 0.00 | 0.00 | 38 | 1007.8 |
| 20260504230050 | 74 | 17 | 5.0 | 11.0 | 0.00 | 0.00 | 0.00 | 36 | 1008.0 |
| 20260504224550 | 76 | 214 | 4.0 | 14.0 | 0.00 | 0.00 | 0.00 | 35 | 1008.0 |
| 20260504223100 | 76 | 225 | 6.0 | 14.0 | 0.00 | 0.00 | 0.00 | 34 | 1008.1 |
| 20260504221547 | 76 | 227 | 6.0 | 18.0 | 0.00 | 0.00 | 0.00 | 34 | 1008.0 |
| 20260504220054 | 77 | 230 | 7.0 | 17.0 | 0.00 | 0.00 | 0.00 | 32 | 1008.0 |
| 20260504214551 | 77 | 247 | 6.0 | 21.0 | 0.00 | 0.00 | 0.00 | 32 | 1007.8 |
| 20260504213053 | 77 | 218 | 7.0 | 20.0 | 0.00 | 0.00 | 0.00 | 32 | 1007.6 |
| 20260504211549 | 77 | 149 | 7.0 | 18.0 | 0.00 | 0.00 | 0.00 | 32 | 1007.7 |
| 20260504210051 | 77 | 194 | 5.0 | 22.0 | 0.00 | 0.00 | 0.00 | 32 | 1007.7 |
| 20260504204550 | 78 | 198 | 5.0 | 15.0 | 0.00 | 0.00 | 0.00 | 30 | 1007.7 |
| 20260504203059 | 77 | 144 | 6.0 | 21.0 | 0.00 | 0.00 | 0.00 | 32 | 1007.8 |
| 20260504201544 | 75 | 161 | 7.0 | 16.0 | 0.00 | 0.00 | 0.00 | 33 | 1008.2 |
| 20260504200040 | 76 | 220 | 10.0 | 21.0 | 0.00 | 0.00 | 0.00 | 31 | 1008.2 |
| 20260504194546 | 76 | 213 | 9.0 | 19.0 | 0.00 | 0.00 | 0.00 | 31 | 1008.5 |
| 20260504193048 | 76 | 246 | 7.0 | 20.0 | 0.00 | 0.00 | 0.00 | 31 | 1008.6 |
| 20260504191539 | 77 | 153 | 6.0 | 17.0 | 0.00 | 0.00 | 0.00 | 31 | 1009.1 |
| 20260504190048 | 76 | 221 | 10.0 | 20.0 | 0.00 | 0.00 | 0.00 | 31 | 1009.2 |
| 20260504184540 | 74 | 206 | 5.0 | 18.0 | 0.00 | 0.00 | 0.00 | 31 | 1009.4 |
| 20260504183049 | 75 | 0 | 5.0 | 19.0 | 0.00 | 0.00 | 0.00 | 31 | 1009.4 |
| 20260504181547 | 76 | 240 | 10.0 | 20.0 | 0.00 | 0.00 | 0.00 | 30 | 1009.7 |
| 20260504180047 | 75 | 140 | 6.0 | 25.0 | 0.00 | 0.00 | 0.00 | 31 | 1010.0 |
| 20260504174547 | 75 | 242 | 10.0 | 26.0 | 0.00 | 0.00 | 0.00 | 31 | 1010.2 |
| 20260504173046 | 74 | 217 | 6.0 | 17.0 | 0.00 | 0.00 | 0.00 | 32 | 1010.4 |
| 20260504171553 | 72 | 221 | 9.0 | 16.0 | 0.00 | 0.00 | 0.00 | 33 | 1010.7 |